TimeEDT,TemperatureF,Dew PointF,Humidity,Sea Level PressureIn,VisibilityMPH,Wind Direction,Wind SpeedMPH,Gust SpeedMPH,PrecipitationIn,Events,Conditions,WindDirDegrees,DateUTC
12:54 AM,64.0,62.1,93,30.15,7.0,Calm,Calm,-,N/A,,Clear,0,2009-08-26 04:54:00
1:54 AM,63.0,61.0,93,30.14,7.0,Calm,Calm,-,N/A,,Clear,0,2009-08-26 05:54:00
2:54 AM,62.6,60.8,94,30.21,5.0,Calm,Calm,-,N/A,,Clear,0,2009-08-26 06:54:00
3:47 AM,62.6,60.8,94,30.21,4.0,Calm,Calm,-,N/A,,Scattered Clouds,0,2009-08-26 07:47:00
3:54 AM,61.0,60.1,97,30.14,4.0,Calm,Calm,-,N/A,,Partly Cloudy,0,2009-08-26 07:54:00
4:54 AM,61.0,59.0,93,30.14,6.0,Calm,Calm,-,N/A,,Partly Cloudy,0,2009-08-26 08:54:00
5:54 AM,61.0,60.1,97,30.15,6.0,Calm,Calm,-,N/A,,Overcast,0,2009-08-26 09:54:00
6:40 AM,62.6,60.8,94,30.23,3.0,Calm,Calm,-,N/A,,Overcast,0,2009-08-26 10:40:00
6:54 AM,62.1,60.1,93,30.17,4.0,NNW,4.6,-,N/A,,Overcast,340,2009-08-26 10:54:00
7:54 AM,62.1,60.1,93,30.18,5.0,NNW,5.8,-,N/A,,Partly Cloudy,340,2009-08-26 11:54:00
8:54 AM,66.0,62.1,87,30.19,7.0,North,5.8,-,N/A,,Clear,350,2009-08-26 12:54:00
9:54 AM,71.1,63.0,75,30.19,9.0,North,4.6,-,N/A,,Clear,350,2009-08-26 13:54:00
10:54 AM,75.0,64.0,69,30.19,9.0,Calm,Calm,-,N/A,,Clear,0,2009-08-26 14:54:00
11:54 AM,79.0,61.0,54,30.17,10.0,SW,3.5,-,N/A,,Clear,230,2009-08-26 15:54:00
12:54 PM,79.0,59.0,50,30.15,10.0,SW,3.5,-,N/A,,Mostly Cloudy,230,2009-08-26 16:54:00
1:54 PM,80.1,55.0,42,30.13,10.0,Calm,Calm,-,N/A,,Partly Cloudy,0,2009-08-26 17:54:00
2:54 PM,84.0,54.0,35,30.11,10.0,Calm,Calm,-,N/A,,Partly Cloudy,0,2009-08-26 18:54:00
3:54 PM,82.9,55.9,39,30.10,10.0,West,5.8,-,N/A,,Partly Cloudy,270,2009-08-26 19:54:00
4:54 PM,82.9,57.9,42,30.08,10.0,WNW,3.5,-,N/A,,Clear,300,2009-08-26 20:54:00
5:54 PM,81.0,61.0,50,30.09,10.0,East,3.5,-,N/A,,Mostly Cloudy,100,2009-08-26 21:54:00
6:54 PM,79.0,64.0,60,30.10,10.0,South,5.8,-,N/A,,Mostly Cloudy,190,2009-08-26 22:54:00
7:54 PM,77.0,63.0,62,30.11,10.0,South,5.8,-,N/A,,Overcast,190,2009-08-26 23:54:00
8:54 PM,73.9,64.9,73,30.12,10.0,NNW,3.5,-,N/A,,Mostly Cloudy,330,2009-08-27 00:54:00
9:54 PM,72.0,63.0,73,30.13,10.0,Calm,Calm,-,N/A,,Overcast,0,2009-08-27 01:54:00
10:54 PM,68.0,64.0,87,30.13,10.0,WSW,3.5,-,N/A,,Clear,250,2009-08-27 02:54:00
11:54 PM,66.9,63.0,87,30.13,10.0,Calm,Calm,-,N/A,,Partly Cloudy,0,2009-08-27 03:54:00